Date,TemperatureHighF,TemperatureAvgF,TemperatureLowF,DewpointHighF,DewpointAvgF,DewpointLowF,HumidityHigh,HumidityAvg,HumidityLow,PressureMaxIn,PressureMinIn,WindSpeedMaxMPH,WindSpeedAvgMPH,GustSpeedMaxMPH,PrecipitationSumIn
2013-1-1,67,52,40,39,27,16,84,44,18,30.00,29.86,9,3,22,0.00
2013-1-2,56,55,54,18,15,13,22,20,19,29.91,29.86,9,5,21,0.00
2013-1-3,72,61,44,28,19,16,54,22,12,29.89,29.82,15,6,21,0.05
2013-1-4,78,68,39,40,24,17,74,22,12,30.02,29.93,4,2,6,0.00
2013-1-5,70,49,35,46,39,24,82,70,21,30.06,29.94,4,1,8,0.00
2013-1-6,63,50,41,55,46,41,99,86,58,29.96,29.79,7,1,17,0.01
2013-1-7,71,52,37,52,39,33,99,68,30,30.01,29.80,4,1,8,0.01
2013-1-8,82,56,41,54,44,32,98,67,21,29.94,29.86,4,1,9,0.00
2013-1-9,46,44,42,45,43,42,99,98,97,29.94,29.92,0,0,2,0.00
2013-1-10,64,50,37,52,37,20,99,67,20,29.96,29.76,8,1,13,0.00
2013-1-11,62,46,33,33,26,16,84,51,21,30.04,29.90,6,2,14,0.00
2013-1-12,67,46,34,34,27,19,73,52,16,30.00,29.92,4,2,12,0.00
2013-1-13,65,48,37,36,25,7,73,44,17,30.03,29.89,6,2,21,0.00
2013-1-14,61,48,40,18,11,5,24,21,18,30.19,29.99,10,5,29,0.00
2013-1-15,70,50,33,42,25,6,89,44,14,30.28,30.17,7,1,14,0.00
2013-1-16,46,44,40,32,30,28,69,58,52,30.19,30.17,1,0,4,0.00
2013-1-17,80,70,64,24,19,16,17,14,12,30.01,29.88,14,6,23,0.04
2013-1-18,81,71,60,24,20,16,19,15,11,29.99,29.88,9,5,22,0.00
2013-1-19,80,67,61,24,19,16,19,16,12,30.02,29.93,8,5,19,0.00
2013-1-20,84,69,52,31,21,15,28,17,11,29.97,29.84,9,3,21,0.00
2013-1-21,86,70,56,32,21,16,22,16,11,29.93,29.82,8,4,21,0.00
2013-1-22,84,64,54,41,25,15,52,24,12,29.92,29.83,6,2,11,0.00
2013-1-23,84,64,55,52,35,20,90,38,18,29.94,29.83,5,1,14,0.05
2013-1-24,65,59,53,60,57,52,99,94,78,30.01,29.91,6,2,17,0.71
2013-1-25,65,61,58,60,56,51,99,86,61,29.96,29.81,6,2,16,0.17
2013-1-26,75,59,55,65,56,53,99,93,63,29.83,29.72,5,2,8,0.14
2013-1-27,70,56,42,58,48,31,97,75,31,29.88,29.75,6,2,16,0.00
2013-1-28,66,51,37,41,36,30,92,61,29,30.03,29.87,6,2,14,0.00
2013-1-29,64,51,39,46,38,34,88,65,37,30.06,29.98,4,1,9,0.00
2013-2-1,83,64,50,54,50,43,99,65,25,30.01,29.94,9,1,12,0.00
2013-2-2,77,62,50,57,51,44,99,70,31,30.02,29.95,5,1,8,0.00
2013-2-3,78,61,48,56,52,46,99,75,37,29.98,29.85,5,1,8,0.00
2013-2-4,71,56,43,57,51,43,99,83,55,29.93,29.82,4,1,8,0.00
2013-2-5,60,55,46,55,53,45,99,92,80,29.93,29.83,4,1,10,0.00
2013-2-6,71,56,45,57,50,44,99,84,47,29.95,29.83,5,1,11,0.00
2013-2-7,67,53,41,53,48,41,99,84,55,29.98,29.81,5,1,11,0.01
2013-2-8,60,50,41,47,42,38,95,77,54,29.81,29.70,7,2,17,0.00
2013-2-9,66,50,35,43,37,32,99,68,31,29.88,29.77,4,2,13,0.00
2013-2-10,65,50,40,47,43,39,99,79,47,29.93,29.85,4,2,9,0.00
2013-2-11,71,52,38,45,37,17,99,66,13,30.07,29.90,8,2,16,0.00
2013-2-12,68,52,38,41,34,24,87,55,21,30.18,30.07,4,2,6,0.00
2013-2-13,68,52,36,52,41,33,97,70,32,30.10,29.98,5,1,9,0.00
2013-2-14,76,52,40,55,45,37,98,79,38,30.03,29.90,7,1,10,0.00
2013-2-15,86,68,45,40,29,19,75,29,11,30.03,29.94,8,3,26,0.00
2013-2-16,86,66,48,42,27,20,62,26,11,29.99,29.81,6,2,11,0.00
2013-2-17,71,56,40,55,44,31,99,68,28,29.86,29.76,5,1,13,0.00
2013-2-18,68,57,46,53,50,45,99,80,51,29.93,29.81,5,2,11,0.00
2013-2-19,63,54,49,51,48,43,99,82,52,29.85,29.65,6,2,17,0.00
2013-2-20,60,48,42,48,33,25,74,57,32,30.09,29.92,4,1,8,0.09
2013-2-21,68,52,39,46,37,31,77,58,33,30.09,30.01,6,2,13,0.00
2013-2-22,48,47,46,44,43,41,92,86,80,30.22,30.19,2,1,5,0.00
2013-2-23,69,60,38,54,45,35,92,61,44,30.20,29.94,5,2,13,0.00
2013-2-24,56,47,44,36,34,32,69,62,44,30.24,30.18,2,1,6,0.00
2013-2-25,72,55,38,33,25,17,71,37,14,30.26,29.63,5,2,13,0.00
2013-2-26,56,51,47,46,41,27,85,71,33,29.84,29.77,2,1,2,0.00
2013-2-27,84,64,50,31,22,15,46,22,11,30.01,29.84,10,3,14,0.00
2013-2-28,85,59,44,50,34,19,67,45,11,30.03,29.96,5,1,12,0.00
2013-3-1,91,68,47,40,32,20,62,31,11,30.03,29.88,7,2,21,0.00
2013-3-2,84,62,52,42,34,30,55,36,16,29.93,29.88,3,1,8,0.00
2013-3-3,72,60,50,57,54,50,99,82,45,29.75,29.70,6,2,13,0.00
2013-3-4,70,57,46,56,51,44,99,84,55,29.82,29.73,6,2,12,0.00
2013-3-5,73,55,46,55,51,45,99,87,52,29.85,29.75,5,2,14,0.00
2013-3-6,65,54,46,53,50,45,99,86,55,29.87,29.73,4,1,8,0.00
2013-3-7,66,56,49,57,50,44,99,83,48,29.74,29.55,4,1,13,0.33
2013-3-8,66,54,45,55,48,44,99,80,51,29.74,29.51,6,2,14,0.37
2013-3-9,70,56,41,52,47,41,99,76,41,29.93,29.75,6,2,14,0.00
2013-3-10,81,60,42,50,42,24,94,60,14,29.99,29.89,6,2,13,0.00
2013-3-11,77,58,41,50,44,37,99,66,30,29.90,29.77,5,1,13,0.00
2013-3-12,78,60,44,58,49,42,99,71,36,29.81,29.74,4,1,10,0.00
2013-3-13,79,60,44,58,51,43,99,77,41,29.83,29.75,4,1,9,0.00
2013-3-14,52,51,50,51,51,50,99,99,98,29.80,29.79,1,0,4,0.00
2013-3-15,71,61,51,62,56,51,99,85,65,29.76,29.70,6,2,11,0.00
2013-3-16,70,58,50,57,54,50,99,87,63,29.71,29.60,4,2,8,0.00
2013-3-17,72,56,46,58,52,45,99,89,58,29.74,29.65,4,1,10,0.00
2013-3-18,68,55,45,56,51,44,99,88,61,29.81,29.70,4,1,11,0.00
2013-3-19,71,59,47,58,54,47,99,85,57,29.84,29.75,5,2,13,0.00
2013-3-20,74,60,52,60,54,50,99,83,54,29.82,29.67,4,1,13,0.00
2013-3-21,75,60,48,58,53,47,99,80,52,29.68,26.60,6,2,11,0.00
2013-3-22,75,60,44,55,48,39,99,70,34,29.62,29.51,5,2,11,0.00
2013-3-23,73,58,41,57,46,31,99,70,23,29.73,29.62,5,2,12,0.00
2013-3-24,76,60,43,57,50,43,99,75,36,29.75,29.61,6,1,13,0.00
2013-3-25,76,59,44,60,52,42,99,79,50,29.69,29.61,5,1,11,0.00
2013-3-26,71,59,48,60,53,48,99,84,59,29.69,29.63,5,2,15,0.00
2013-3-27,72,60,48,57,53,47,99,81,53,29.77,29.65,6,2,14,0.00
2013-3-28,73,59,51,59,54,51,99,87,58,29.81,29.74,6,2,14,0.00
2013-3-29,73,59,48,60,55,48,99,87,58,29.84,29.76,5,2,12,0.00
2013-3-30,73,61,55,59,56,54,99,86,57,29.86,29.77,6,2,14,0.00
2013-3-31,71,61,55,64,57,54,99,89,63,29.84,29.77,5,2,14,0.05
2013-4-1,70,57,40,58,54,21,99,91,46,30.01,29.88,8,2,13,0.00
2013-4-2,73,57,48,58,53,48,99,89,53,29.91,29.81,6,1,11,0.00
2013-4-3,78,62,50,60,56,50,99,83,48,29.89,29.81,6,2,14,0.00
2013-4-4,59,57,56,57,56,56,99,98,93,29.93,29.85,3,1,7,0.00
2013-4-5,68,58,54,57,55,53,97,91,68,29.97,29.91,3,1,8,0.00
2013-4-6,75,62,50,60,55,49,99,81,55,30.02,29.87,6,2,13,0.00
2013-4-7,79,63,50,61,55,49,99,78,44,29.90,29.70,4,2,11,0.00
2013-4-8,73,61,50,55,44,27,99,60,20,29.77,29.58,12,4,28,0.01
2013-4-9,74,52,44,48,44,33,92,76,25,29.88,29.77,2,0,5,0.00
2013-4-10,88,72,46,56,40,24,88,41,13,29.96,29.83,6,2,14,0.01
2013-4-11,54,52,50,51,50,46,96,93,88,29.84,29.81,1,0,2,0.00
2013-4-12,72,60,51,58,54,51,99,84,57,29.74,29.66,8,2,13,0.00
2013-4-13,62,57,54,58,55,53,99,93,82,29.78,29.70,4,1,8,0.00
2013-4-14,66,60,55,59,55,53,99,82,68,29.75,29.68,5,2,11,0.01
2013-4-15,57,56,55,55,54,53,97,93,86,29.73,29.70,3,1,4,0.00
2013-4-16,69,57,44,52,46,39,99,69,36,29.88,29.73,5,2,10,0.00
2013-4-17,75,61,43,49,40,20,99,53,14,29.99,29.88,6,2,11,0.00
2013-4-18,85,66,51,44,28,16,68,29,11,30.07,29.99,9,4,28,0.00
2013-4-19,86,67,47,55,42,29,92,47,14,30.03,29.83,5,2,12,0.00
2013-4-20,86,66,49,58,51,44,98,62,27,29.86,29.74,6,2,13,0.00
2013-4-21,81,65,50,60,55,48,99,75,36,29.86,29.78,6,2,12,0.00
2013-4-22,73,63,58,59,57,56,96,82,59,29.86,29.75,5,2,14,0.00
2013-4-23,74,63,56,57,55,54,99,77,55,29.83,29.74,5,2,12,0.00
2013-4-24,63,59,56,59,57,56,99,94,83,29.82,29.76,4,1,9,0.00
2013-4-25,75,61,52,58,53,49,98,77,42,29.99,29.82,5,1,10,0.00
2013-4-26,76,63,51,58,54,48,99,74,45,30.01,29.96,5,2,13,0.00
2013-4-27,77,63,50,62,56,49,99,78,50,30.00,29.85,5,2,14,0.00
2013-4-28,75,62,54,62,58,54,99,86,59,29.87,29.72,5,2,11,0.00
2013-4-29,73,62,55,61,58,54,99,87,64,29.77,29.65,5,2,12,0.00
2013-4-30,73,63,58,60,58,57,99,86,59,29.75,29.68,8,2,13,0.00
2013-5-1,78,67,56,61,58,56,99,74,48,29.95,29.75,5,2,12,0.00
2013-5-2,97,71,50,57,45,21,99,55,11,29.98,29.87,13,4,30,0.04
2013-5-3,99,74,51,57,45,29,89,44,11,29.89,29.61,5,1,13,0.00
2013-5-4,80,65,52,61,56,46,96,75,46,29.70,29.58,8,2,18,0.00
2013-5-5,70,62,59,58,55,52,91,77,56,29.78,29.68,4,2,14,0.00
2013-5-6,75,64,57,62,57,50,99,81,48,34.77,29.73,5,2,13,0.11
2013-5-7,76,66,58,59,56,48,98,72,37,29.89,29.84,6,2,17,0.00
2013-5-9,60,59,58,58,58,57,97,94,92,29.94,29.93,2,0,2,0.00
2013-5-10,80,70,54,62,60,54,99,72,50,29.96,29.86,5,2,13,0.00
2013-5-11,82,68,57,66,61,57,99,82,54,29.93,29.86,5,2,13,0.00
2013-5-12,88,72,55,66,61,54,99,73,42,29.91,29.77,6,1,14,0.00
2013-5-13,86,71,57,66,61,57,99,74,45,29.83,29.76,4,2,11,0.00
2013-5-14,75,64,55,62,57,54,99,81,57,29.86,29.77,6,2,13,0.00
2013-5-15,75,64,51,61,56,51,99,79,56,29.91,29.80,6,2,13,0.00
2013-5-16,57,55,54,56,55,1,99,98,97,29.83,29.81,1,0,3,0.00
2013-5-17,75,62,54,59,55,53,99,79,57,29.85,29.77,6,2,14,0.00
2013-5-18,77,61,0,59,55,51,99,71,43,29.90,29.82,5,1,13,0.00
2013-5-19,81,66,52,61,57,51,98,74,45,29.85,29.71,6,2,14,0.00
2013-5-20,82,69,54,63,58,53,99,71,44,29.81,29.72,5,2,12,0.00
2013-5-21,79,68,56,65,60,55,99,77,60,29.80,29.68,5,2,13,0.00
2013-5-22,76,65,55,61,55,51,95,73,46,29.71,29.63,6,2,14,0.00
2013-5-23,75,64,52,58,53,48,94,71,43,29.80,29.68,6,2,17,0.00
2013-5-24,75,63,49,59,53,49,99,73,47,29.84,29.76,5,2,15,0.00
2013-5-25,74,63,50,60,54,49,99,75,51,29.88,29.82,7,2,16,0.00
2013-5-26,76,64,50,60,56,50,99,76,54,29.90,29.84,7,2,14,0.00
2013-5-27,77,66,53,61,57,52,99,76,50,29.86,29.70,5,2,12,0.00
2013-5-28,82,69,55,62,59,54,99,73,44,29.74,29.59,5,2,13,0.00
2013-5-29,84,69,56,63,58,56,99,72,42,29.67,29.56,4,2,12,0.00
2013-5-30,80,68,54,64,59,53,99,74,53,29.70,29.62,5,2,12,0.00
2013-5-31,69,63,60,61,60,58,96,91,74,30.17,29.92,3,1,6,0.00
2013-6-1,82,69,59,65,62,59,99,81,53,29.95,29.83,5,2,10,0.00
2013-6-2,76,66,61,66,62,60,99,90,70,29.92,29.86,4,2,11,0.00
2013-6-3,78,68,61,63,61,60,99,80,57,29.99,29.89,6,2,13,0.00
2013-6-4,77,67,58,63,60,56,98,80,59,30.07,29.98,5,2,13,0.00
2013-6-5,76,64,53,62,58,53,99,83,59,30.11,30.03,5,2,12,0.00
2013-6-6,76,64,55,62,59,54,99,85,61,30.05,29.98,5,2,11,0.00
2013-6-7,77,66,60,63,61,59,97,85,62,30.01,29.88,4,2,12,0.00
2013-6-8,73,65,61,63,61,60,96,87,70,30.00,29.88,5,2,11,0.00
2013-6-9,76,66,61,65,61,58,99,86,66,30.01,29.97,6,2,12,0.00
2013-6-10,79,69,61,62,59,55,94,72,48,30.06,29.99,6,2,14,0.00
2013-6-11,82,70,57,64,61,57,99,77,50,30.04,29.98,6,2,11,0.00
2013-6-12,76,65,61,63,61,60,98,88,64,30.13,30.03,5,2,13,0.00
2013-6-13,77,71,63,64,62,59,95,75,62,30.11,29.99,5,2,12,0.00
2013-6-14,78,67,54,64,61,53,99,83,59,30.01,29.93,6,2,11,0.00
2013-6-15,78,67,60,63,61,59,99,81,55,30.08,29.98,7,2,15,0.00
2013-6-16,78,68,61,62,60,59,94,78,58,30.14,30.05,5,2,12,0.00
2013-6-17,79,66,55,64,60,55,99,84,53,30.09,29.97,6,1,9,0.00
2013-6-18,79,68,56,64,59,56,99,76,53,30.02,29.92,6,2,13,0.00
2013-6-19,87,71,55,62,57,47,99,66,26,29.97,29.87,6,2,13,0.00
2013-6-20,81,69,54,63,57,53,97,68,43,29.95,29.90,6,2,11,0.00
2013-6-21,81,71,54,63,59,54,97,68,48,29.99,29.93,5,2,12,0.00
2013-6-22,81,69,56,64,60,55,99,76,50,30.00,29.91,6,2,14,0.00
2013-6-23,76,67,56,63,61,56,99,81,62,29.99,29.89,4,2,11,0.00
2013-6-24,78,66,56,65,61,56,99,85,60,30.04,29.91,5,2,12,0.00
2013-6-25,78,70,61,66,63,8,98,80,11,30.09,30.00,6,2,14,0.00
2013-6-26,84,73,60,68,64,60,99,75,50,30.07,30.00,4,2,14,0.00
2013-6-27,87,75,63,70,66,62,99,76,52,30.11,30.05,5,2,12,0.00
2013-6-28,89,75,62,69,65,62,99,75,46,30.08,29.96,5,2,11,0.00
2013-6-29,90,77,61,69,65,61,99,71,44,29.98,29.82,4,1,11,0.00
2013-6-30,92,76,63,70,66,62,99,75,43,29.91,29.80,6,2,14,0.00
2013-7-1,87,76,66,71,68,61,99,79,56,29.98,29.92,5,2,12,0.00
2013-7-2,85,71,64,70,66,63,99,87,57,30.10,29.96,5,2,15,0.00
2013-7-3,81,70,65,69,66,64,99,88,63,30.03,29.90,5,2,11,0.00
2013-7-4,81,70,64,68,65,63,99,85,58,29.94,29.84,5,2,11,0.00
2013-7-5,82,71,65,67,65,64,97,85,58,29.95,29.86,5,2,11,0.00
2013-7-6,80,70,65,68,66,63,97,85,65,29.93,29.85,5,2,14,0.00
2013-7-7,81,69,61,68,64,61,99,84,58,29.96,29.88,5,2,11,0.00
2013-7-8,83,71,60,66,63,60,99,79,52,30.03,29.95,5,2,11,0.00
2013-7-9,87,73,59,67,63,59,99,73,44,30.08,30.01,5,2,13,0.00
2013-7-10,87,71,61,68,64,60,99,82,49,30.08,29.99,4,1,11,0.00
2013-7-11,81,70,66,70,66,64,96,89,66,30.06,29.98,3,1,6,0.00
2013-7-12,81,72,61,70,65,60,99,81,61,30.03,29.97,5,2,12,0.00
2013-7-13,81,69,62,66,63,60,98,82,56,30.06,29.96,5,2,13,0.00
2013-7-14,84,71,57,67,62,57,99,76,46,30.04,29.90,5,2,11,0.00
2013-7-15,82,69,58,64,60,57,99,75,48,29.98,29.91,5,2,13,0.00
2013-7-16,83,68,55,65,59,54,99,77,43,30.08,29.97,4,2,12,0.00
2013-7-17,61,61,61,60,60,60,97,97,97,30.07,30.07,0,0,3,0.00
2013-7-18,82,69,57,63,61,57,99,76,51,29.91,29.79,5,1,8,0.00
2013-7-19,82,70,60,63,60,58,99,73,47,29.91,29.74,5,2,10,0.00
2013-7-20,80,68,57,67,62,57,99,84,62,29.81,29.69,5,2,12,0.00
2013-7-21,80,68,64,68,65,63,99,92,63,29.85,29.72,4,1,11,0.00
2013-7-22,81,70,63,69,65,62,99,85,62,29.91,29.83,5,2,11,0.01
2013-7-23,81,70,63,67,64,61,99,83,52,29.96,29.87,5,2,14,0.00
2013-7-24,77,67,62,65,62,61,98,86,63,29.91,29.82,14,2,115,0.00
2013-7-25,78,67,62,65,62,60,98,85,63,29.94,29.85,5,2,11,0.00
2013-7-26,81,68,61,66,62,60,98,84,55,30.09,29.92,4,2,11,0.00
2013-7-27,79,68,60,65,62,8,99,83,58,30.08,29.94,6,2,12,0.00
2013-7-28,76,66,60,65,62,60,99,88,67,29.99,29.93,4,2,11,0.00
2013-7-29,78,68,60,65,61,58,99,82,57,30.10,29.98,4,2,14,0.00
2013-7-30,78,66,58,64,60,58,99,83,56,30.19,30.09,4,2,12,0.00
2013-7-31,76,65,57,62,60,56,99,85,59,30.18,30.06,5,2,13,0.00
2013-8-1,77,66,59,63,60,58,97,82,56,30.10,29.96,4,1,12,0.00
2013-8-2,80,67,54,65,60,53,99,81,57,30.03,29.97,5,1,13,0.00
2013-8-3,79,66,58,65,61,57,99,85,57,30.06,30.00,4,2,13,0.00
2013-8-4,78,66,58,64,61,57,99,85,57,30.09,30.00,4,2,11,0.00
2013-8-5,79,66,58,63,60,8,99,83,13,30.08,29.98,4,1,12,0.00
2013-8-6,79,66,58,63,60,58,99,84,49,30.11,29.79,6,2,14,0.01
2013-8-7,78,66,58,64,60,58,99,83,54,30.02,29.91,5,2,12,0.00
2013-8-8,80,68,59,64,61,59,99,81,53,29.93,29.84,5,2,12,0.00
2013-8-9,78,66,58,64,60,8,99,83,13,29.90,29.84,7,2,14,0.00
2013-8-10,78,67,57,67,61,56,99,83,58,29.96,29.89,6,2,14,0.00
2013-8-11,79,67,58,64,62,58,99,84,57,29.93,29.84,5,1,14,0.00
2013-8-12,80,68,61,65,62,60,98,83,58,29.91,29.84,5,2,11,0.00
2013-8-13,82,68,60,66,62,60,99,85,55,29.92,29.81,4,2,11,0.00
2013-8-14,82,65,61,67,62,60,98,91,58,29.87,29.77,4,1,8,0.00
2013-8-15,83,69,61,68,64,60,99,86,57,29.88,29.82,6,2,11,0.00
2013-8-16,84,70,62,68,64,61,99,82,55,29.90,29.84,6,2,11,0.00
2013-8-17,80,65,62,66,62,61,98,91,58,29.89,29.75,6,1,8,0.00
2013-8-18,82,70,59,66,63,59,99,81,53,29.82,29.75,5,2,11,0.00
2013-8-19,80,68,61,67,63,60,99,87,60,29.89,29.80,4,2,7,0.00
2013-8-20,81,68,62,66,62,60,98,83,57,29.89,29.80,7,2,8,0.00
2013-8-21,82,69,56,65,61,56,99,79,51,29.87,29.78,5,1,10,0.00
2013-8-22,87,71,56,67,61,56,99,74,42,29.85,29.76,6,1,11,0.00
2013-8-23,85,70,54,63,60,54,99,74,45,29.80,29.67,5,1,8,0.00
2013-8-24,83,66,54,65,61,54,99,85,49,29.81,29.70,6,1,9,0.01
2013-8-25,86,69,56,66,61,56,99,79,45,29.85,29.77,4,1,11,0.00
2013-8-26,90,72,52,64,60,52,99,71,34,29.86,29.75,6,1,10,0.00
2013-8-27,76,67,64,68,64,63,97,92,72,29.78,29.72,2,0,6,0.00
2013-8-30,77,75,74,66,64,63,75,68,62,29.93,29.93,2,0,3,0.00
2013-8-31,93,84,70,72,68,64,92,62,45,29.94,29.85,5,2,13,0.00
2013-9-1,90,77,68,72,69,65,98,76,54,29.92,29.83,4,1,49,0.00
2013-9-2,89,75,65,72,69,64,99,82,54,29.91,29.78,5,1,10,0.00
2013-9-3,92,78,65,72,68,65,99,73,47,29.88,29.80,4,1,10,0.00
2013-9-4,90,76,64,72,65,63,99,73,45,29.91,29.82,4,1,11,0.00
2013-9-5,93,76,62,69,65,61,99,73,42,29.88,29.81,4,1,11,0.00
2013-9-6,94,76,61,70,64,60,99,72,40,29.87,29.77,4,1,11,0.00
2013-9-7,88,72,60,70,63,60,99,77,44,29.86,29.79,5,1,12,0.00
2013-9-8,82,70,61,67,62,60,99,81,51,29.85,29.75,5,1,11,0.00
2013-9-9,77,66,60,65,62,60,99,88,63,29.82,29.75,4,1,11,0.00
2013-9-10,79,68,60,65,62,60,99,83,57,29.93,29.80,5,1,11,0.00
2013-9-11,80,68,59,66,62,59,99,83,57,30.00,29.92,6,1,12,0.00
2013-9-12,86,73,56,68,62,56,99,72,46,29.93,29.82,4,2,10,0.00
2013-9-13,86,76,57,66,63,57,99,67,45,29.93,29.79,7,2,8,0.00
2013-9-14,86,76,58,66,62,58,99,66,44,29.84,29.76,5,2,10,0.00
2013-9-15,85,71,58,67,62,58,99,76,49,29.89,29.80,20,1,20,11.61
2013-9-16,86,70,0,68,62,58,99,78,48,29.95,29.86,5,1,10,0.00
2013-9-17,80,66,56,66,60,56,99,84,52,29.95,29.85,8,1,30,0.00
2013-9-18,80,68,56,67,61,55,99,82,56,29.94,29.86,4,1,12,0.00
2013-9-19,80,68,56,67,63,56,99,85,61,29.95,29.86,5,1,11,0.00
2013-9-20,73,66,65,65,64,63,96,93,75,30.01,29.93,4,1,6,0.00
2013-9-21,80,67,59,66,62,58,99,86,53,30.04,29.91,8,2,15,0.00
2013-9-22,84,68,55,66,58,46,99,74,28,29.97,29.88,6,1,11,0.00
2013-9-23,93,73,52,59,53,46,99,57,22,29.99,29.93,4,1,13,0.00
2013-9-24,88,75,54,63,56,48,99,58,27,30.05,29.94,4,2,12,0.00
2013-9-25,79,68,53,63,58,53,99,74,45,29.96,29.80,6,2,17,0.00
2013-9-26,79,66,56,60,54,42,97,71,27,30.01,29.83,7,2,13,0.00
2013-9-27,90,66,50,52,37,26,93,40,13,30.11,30.00,7,1,12,0.00
2013-9-28,88,70,50,50,41,31,73,41,13,30.15,30.08,6,2,11,0.00
2013-9-29,86,68,50,58,49,34,94,55,18,30.18,30.08,4,1,11,0.00
2013-9-30,86,66,50,62,53,44,99,69,27,30.10,29.92,15,1,15,0.00
2013-10-1,82,67,52,66,59,52,99,79,50,30.01,29.94,4,1,12,0.00
2013-10-2,81,66,55,65,60,54,99,84,51,30.05,29.96,5,1,12,0.00
2013-10-3,79,66,57,66,60,56,99,85,57,30.01,29.89,4,1,13,0.00
2013-10-4,89,72,51,56,34,16,99,39,11,30.12,29.95,12,5,30,0.00
2013-10-5,94,79,66,39,27,17,23,15,11,30.20,30.10,11,5,32,0.00
2013-10-6,100,78,60,54,33,16,67,25,11,30.16,30.04,5,2,15,0.00
2013-10-7,84,66,52,60,51,34,99,63,25,30.06,29.98,4,1,11,0.00
2013-10-8,76,63,50,62,56,13,99,81,57,30.01,29.90,6,2,14,0.01
2013-10-9,69,60,51,58,54,48,96,80,49,29.90,29.77,7,2,18,0.00
2013-10-10,74,60,47,56,52,47,99,78,45,30.11,29.88,5,2,12,0.00
2013-10-11,76,62,48,60,53,48,99,77,47,30.13,30.05,4,1,11,0.00
2013-10-12,77,61,49,62,56,49,99,87,47,29.95,29.87,6,1,10,0.01
2013-10-13,76,62,51,60,56,51,99,83,53,29.99,29.91,4,1,10,0.00
2013-10-14,89,66,48,63,54,33,99,73,15,30.00,29.89,5,1,12,0.00
2013-10-15,93,73,55,57,40,28,91,37,11,29.93,29.85,6,2,17,0.00
2013-10-16,94,74,56,46,33,20,69,26,11,30.04,29.93,6,2,20,0.00
2013-10-17,85,66,48,60,46,32,99,56,16,30.01,29.89,4,1,11,0.00
2013-10-18,82,65,50,64,53,41,98,69,30,29.98,29.91,4,1,11,0.00
2013-10-19,84,65,48,63,52,39,99,70,27,30.00,29.92,4,1,13,0.00
2013-10-20,54,50,47,53,49,46,99,98,95,29.95,29.90,2,0,4,0.00
2013-12-30,79,61,45,43,36,22,74,46,12,30.20,30.13,97,2,97,0.00
2013-12-31,73,51,0,53,40,22,98,68,15,30.16,29.68,5,1,9,0.00
2014-1-1,77,55,40,54,47,39,99,77,42,29.96,29.85,6,1,21,0.00
2014-1-2,86,63,45,50,39,27,99,47,16,29.91,29.81,5,1,8,0.00